Location: Sternwarte Stuttgart
(48.7670°N, 9.1830°E)
Time: 18:25:35
(UTC+01:00)

ISS - All Passes

Search period start: 28 February 2015 00:00
Search period end: 10 March 2015 00:00
Orbit: 397 x 408 km, 51.6° (Epoch: 28 February)

Date Brightness Start Highest point End Pass type
(mag) Time Alt. Az. Time Alt. Az. Time Alt. Az.
28 Feb - 10:03:08 10° S 10:05:09 16° SE 10:07:15 10° E daylight
28 Feb - 11:37:58 10° WSW 11:41:11 76° SSE 11:44:26 10° ENE daylight
28 Feb - 13:14:36 10° W 13:17:45 49° N 13:20:56 10° ENE daylight
28 Feb - 14:51:13 10° WNW 14:54:26 68° NNE 14:57:41 10° E daylight
28 Feb - 16:27:48 10° W 16:30:44 31° SW 16:33:40 10° SSE daylight
01 Mar - 10:45:10 10° SW 10:48:17 48° SSE 10:51:26 10° ENE daylight
01 Mar - 12:21:32 10° W 12:24:44 56° N 12:27:56 10° ENE daylight
01 Mar - 13:58:14 10° WNW 14:01:26 55° N 14:04:38 10° E daylight
01 Mar - 15:34:43 10° WNW 15:37:53 51° SSW 15:41:03 10° SE daylight
02 Mar - 09:52:34 10° SSW 09:55:25 29° SE 09:58:19 10° E daylight
02 Mar - 11:28:28 10° WSW 11:31:42 70° NNW 11:34:56 10° ENE daylight
02 Mar - 13:05:13 10° WNW 13:08:22 49° N 13:11:32 10° E daylight
02 Mar - 14:41:42 10° WNW 14:44:58 79° SSW 14:48:12 10° ESE daylight
02 Mar - 16:18:48 10° W 16:21:00 17° SW 16:23:10 10° S daylight
03 Mar - 09:00:19 10° S 09:02:37 18° SE 09:04:57 10° E daylight
03 Mar - 10:35:27 10° WSW 10:38:41 84° SSE 10:41:56 10° ENE daylight
03 Mar - 12:12:08 10° W 12:15:17 48° N 12:18:27 10° ENE daylight
03 Mar - 13:48:42 10° WNW 13:51:57 74° NNE 13:55:12 10° ESE daylight
03 Mar - 15:25:22 10° W 15:28:11 27° SW 15:31:00 10° SSE daylight
04 Mar - 08:09:02 10° SSE 08:09:49 11° SE 08:10:43 10° ESE daylight
04 Mar - 09:42:33 10° SW 09:45:42 55° SSE 09:48:53 10° ENE daylight
04 Mar - 11:19:00 10° W 11:22:10 53° N 11:25:22 10° ENE daylight
04 Mar - 12:55:41 10° WNW 12:58:53 57° N 13:02:05 10° E daylight
04 Mar - 14:32:11 10° WNW 14:35:17 44° SSW 14:38:24 10° SE daylight
05 Mar - 08:49:49 10° SSW 08:52:46 34° SSE 08:55:45 10° E daylight
05 Mar - 10:25:52 10° W 10:29:04 65° NNW 10:32:19 10° ENE daylight
05 Mar - 12:02:36 10° WNW 12:05:46 50° N 12:08:56 10° E daylight
05 Mar - 13:39:05 10° WNW 13:42:19 71° SSW 13:45:32 10° ESE daylight
05 Mar - 15:16:22 10° WSW 15:18:18 15° SW 15:20:10 10° S daylight
06 Mar - 07:57:23 10° SSW 07:59:52 21° SE 08:02:23 10° E daylight
06 Mar - 09:32:45 10° WSW 09:36:00 88° NNW 09:39:15 10° ENE daylight
06 Mar - 11:09:28 10° WNW 11:12:37 48° N 11:15:46 10° ENE daylight
06 Mar - 12:46:01 10° WNW 12:49:15 80° NNE 12:52:30 10° ESE daylight
06 Mar - 14:22:45 10° W 14:25:26 24° SW 14:28:07 10° SSE daylight
07 Mar - 07:05:36 10° SSE 07:07:00 12° SE 07:08:31 10° ESE daylight
07 Mar - 08:39:44 10° SW 08:42:56 62° SSE 08:46:09 10° ENE daylight
07 Mar - 10:16:16 10° W 10:19:26 51° N 10:22:38 10° ENE daylight
07 Mar - 11:52:56 10° WNW 11:56:08 61° NNE 11:59:21 10° E daylight
07 Mar - 13:29:27 10° WNW 13:32:30 39° SSW 13:35:32 10° SE daylight
08 Mar - 07:46:54 10° SW 07:49:55 38° SSE 07:52:58 10° ENE daylight
08 Mar - 09:23:04 10° W 09:26:17 61° NNW 09:29:30 10° ENE daylight
08 Mar - 10:59:47 10° WNW 11:02:58 51° N 11:06:09 10° E daylight
08 Mar - 12:36:16 10° WNW 12:39:28 63° SSW 12:42:41 10° SE daylight
08 Mar - 14:13:51 10° WSW 14:15:25 13° SW 14:16:54 10° SSW daylight
09 Mar - 06:54:18 10° SSW 06:56:57 24° SE 06:59:37 10° E daylight
09 Mar - 08:29:53 10° WSW 08:33:07 81° NNW 08:36:22 10° ENE daylight
09 Mar - 10:06:36 10° WNW 10:09:45 48° N 10:12:55 10° ENE daylight
09 Mar - 11:43:08 10° WNW 11:46:22 87° NNE 11:49:37 10° ESE daylight
09 Mar - 13:19:58 10° W 13:22:31 21° SW 13:25:01 10° SSE daylight
